Regional Weather Roundup
Issued by NWS State College, PA

Home | Current Version | Previous Version | Text Only | Print | Product List | Glossary On
Versions: 1 2 3 4 5 6 7 8 9 10 11 12 13 14 15 16 17 18 19 20 21 22 23 24 25 26 27 28 29 30 31 32 33 34 35 36 37 38 39 40 41 42 43 44 45 46 47 48 49 50
000
ASUS41 KCTP 061203
RWRCTP

REGIONAL WEATHER ROUNDUP
NATIONAL WEATHER SERVICE STATE COLLEGE PA
700 AM EST FRI MAR 06 2015

Note: "fair" indicates few or no clouds below 12,000 feet with no
significant weather and/or obstructions to visibility.

* = STATION THAT DOES NOT REPORT PRECIPITATION /E.G. RAIN...SNOW...ETC/
    THUNDER OR FOG.

PAZ002>004-007>009-013>016-020>023-029>032-061300-
WESTERN PENNSYLVANIA

CITY           SKY/WX    TMP DP  RH WIND       PRES   REMARKS
ERIE           MOCLDY     1  -6  72 S8        30.51F WCI -13
MEADVILLE      MOCLDY    -1  -6  79 S5        30.45S WCI -11
FRANKLIN*      MOCLDY     0  -8  71 S5        30.46S WCI -10
NEW CASTLE     FAIR      -7 -10  86 CALM      30.53R
BEAVER COUNTY  CLEAR      1  -2  85 CALM      30.48
BUTLER*        PTCLDY    -8 -11  84 CALM      30.50S
PITTSBURGH INT PTCLDY    -3  -7  82 CALM      30.49F
PITTSBURGH     PTCLDY     1  -5  75 S6        30.48F WCI -10
INDIANA*       CLEAR     -8 -11  84 CALM      30.52F
LATROBE        CLEAR     -4  -8  84 CALM      30.53F
WASHINGTON CO* PTCLDY   -11 -11 100 CALM      30.51S
$$

PAZ004>006-010>012-017>019-024>028-033>037-041-042-045-046-049>053-061300-
CENTRAL PENNSYLVANIA

CITY           SKY/WX    TMP DP  RH WIND       PRES   REMARKS
BRADFORD       MOCLDY   -10 -15  78 CALM      30.36R
DUBOIS         PTCLDY    -3  -8  79 CALM      30.41F
CLEARFIELD     CLOUDY    -6 -12  75 CALM      30.46S
JOHNSTOWN      MOCLDY    -2  -6  83 SE5       30.36S WCI -12
ALTOONA        MOCLDY     2  -4  76 CALM      30.46S
STATE COLLEGE  CLEAR      1  -4  78 SW6       30.50S WCI -10
WILLIAMSPORT   PTCLDY     2  -5  72 W9        30.55R WCI -13
SELINSGROVE    MOCLDY     2  -6  69 CALM      30.56R
FT INDIANTOWN  MOCLDY     6  -4  64 VRB1      30.54S
CAPITAL CITY   PTCLDY     6  -1  73 W6        30.56S WCI  -4
HARRISBURG     PTCLDY     4  -1  80 NW6       30.56R WCI  -7
YORK           MOCLDY    -7 -10  87 NW3       30.54S
$$

PAZ038>040-043-044-047-048-054-055-060>062-067>071-061300-
EASTERN PENNSYLVANIA

CITY           SKY/WX    TMP DP  RH WIND       PRES   REMARKS
SCRANTON       PTCLDY     5  -5  63 CALM      30.46S
MOUNT POCONO   PTCLDY     1  -4  79 N8        30.33R WCI -13
ALLENTOWN      PTCLDY     4  -4  69 W6        30.54R WCI  -7
QUAKERTOWN*    PTSUNNY    5   0  78 NW3       30.52R
READING        PTCLDY     6  -2  69 NW8       30.54R WCI  -7
LANCASTER      MOCLDY     2  -3  80 W3        30.55R
COATESVILLE    MOSUNNY    9   1  72 NW8       30.51R WCI  -4
POTTSTOWN      MOCLDY     1  -3  83 W5        30.56R WCI  -9
BLUE BELL      PTCLDY    10   3  72 CALM      30.53R
DOYLESTOWN     PTCLDY     5   0  79 VRB3      30.51R
WILLOW GROVE   NOT AVBL
NORTH PHILA    PTCLDY    11   1  64 NW7       30.56R WCI   0
PHILADELPHIA   PTCLDY    12   1  61 N6        30.57R WCI   3
$$



USA.gov is the U.S. government's official web portal to all federal, state and local government web resources and services.